Reflectivity
17 3 11 7 13 14 18 -20 -20 -20 -20 -20 -20 -20 -20 -20 -20 -20 6 -20 -20 -20 -20 -17 -19 -20 -16 -7 4 28 2 -17 -18 1 11 2 -16 3 -7 -20 -20 -16 7 9 -10 13 -9 -17 -16 -20 -20 -20 -20 -20
10 14 24 28 6 -18 5 -20 -20 -20 -20 -20 -20 -20 -20 -20 -8 -13 0 -20 -20 9 -20 -20 -20 -20 -1 -15 18 5 1 28 15 -10 -19 -1 9 -20 -20 -20 -20 -4 -19 -20 -16 -6 -20 -20 -19 -20 -20 5 -20 -20
14 14 14 15 10 7 -17 8 -20 -20 -20 -20 -20 -20 -20 -20 8 -16 -16 -20 -20 -19 -20 -20 -20 -20 -20 -20 -20 17 5 12 14 28 11 -1 12 -20 -20 -20 -20 -20 -20 16 18 -18 -6 3 6 6 -9 -11 25 0
11 20 19 14 12 20 14 8 11 -20 -20 -20 -20 -20 -20 -20 -20 -5 -8 -20 -20 -7 10 -20 -20 -20 -20 -20 -20 -20 -20 9 6 13 37 15 19 5 -16 -20 -20 -20 -20 -1 -8 -11 -2 -19 -19 8 18 16 30 26
15 11 19 21 19 21 24 31 13 -20 -20 -20 -20 -20 -20 -19 -20 -2 -17 -20 -5 -9 -3 -5 -20 -20 -20 -20 -20 -20 -10 16 1 33 28 10 -20 -15 -20 -20 -20 -20 -17 -17 -20 -0 -16 -20 2 -20 -20 -5 -20 -20
-20 -20 -20 -20 -20 -19 -1 36 16 -20 -20 -20 -20 -20 -20 -20 5 15 -19 -20 -20 -20 8 -9 -20 -20 -20 -20 -20 -6 -14 24 28 23 34 20 -18 -20 -20 -20 -20 -20 3 5 -20 -20 -20 -20 -15 -20 -20 -20 -20 -20
15 13 15 9 -7 -9 26 35 18 -17 -20 -20 -20 -20 -20 13 -20 -20 -20 -16 -20 -14 -20 -20 -20 -20 -20 -20 -20 -15 25 23 25 31 11 -20 -20 -20 -20 -20 -20 -19 5 1 -20 -20 -20 -20 -20 -20 -20 -20 -20 -20
-20 -20 -20 -20 -20 19 -0 13 6 -20 -20 -20 -20 -20 0 -6 10 19 -20 2 12 12 -20 -20 -20 -20 -20 -20 -1 6 24 25 23 -20 -20 -20 -20 -20 -20 -20 -20 -20 -20 -20 -20 -20 -20 -20 -20 -20 -20 -20 -20 -20
-20 -20 -20 -20 -19 -17 -20 -20 -20 -20 13 -20 10 19 -9 13 15 -17 -20 -10 16 24 24 -14 -20 -20 -5 -14 10 25 -6 9 -20 -15 -20 -20 -20 -20 -20 -20 -20 -20 -20 -20 -20 -20 -20 -20 -20 -20 -20 -20 -20 -20
-20 -20 -20 -20 18 -5 -18 -20 -20 -19 20 21 -19 1 -13 -12 -2 -0 23 24 20 -15 -12 -1 21 -19 -12 -3 13 -11 -20 -9 14 -20 -20 9 -3 -20 -20 -20 -20 -20 -20 -20 -20 -20 -20 -20 -20 -20 -20 -20 -20 -20
-20 -20 -20 -19 -7 -20 -20 -12 -8 14 25 19 19 -20 -20 10 7 26 10 15 1 8 -2 -20 -20 12 -13 15 -19 -20 -20 -20 10 -20 -13 -18 -20 -20 -20 -20 -20 -20 -20 -20 -20 -20 -20 -20 -20 -20 -17 -20 -20 -20
-20 -20 -20 -20 -20 -20 -3 -17 -10 7 0 -16 -18 -7 26 38 6 17 -19 2 20 -9 -20 -20 -20 -20 -20 -20 1 11 -20 -20 -19 -14 6 -16 -20 -20 -20 -20 -20 -20 -20 -20 -20 -19 -20 -20 -3 -8 -20 -20 -20 -20
-6 -20 -20 -19 -19 5 -20 -19 4 -1 -20 13 27 17 26 -19 15 -20 3 15 -0 -19 -20 -20 -20 -20 3 -17 14 -3 -18 -12 -20 -1 -20 -20 -20 -20 -12 2 -17 -0 17 18 17 15 14 -3 -20 -20 -20 -20 -20 -20
-9 -18 12 12 -20 -20 -20 11 12 19 -3 2 -4 -3 24 -7 16 17 -5 -20 -20 -20 -15 -20 -20 -20 -12 -16 7 -18 -20 -9 -20 -20 -20 -20 -20 -20 -13 11 14 13 12 2 -20 -20 -20 -20 -20 -20 -20 -20 -20 -17
14 0 7 5 -2 18 19 20 20 -5 8 15 25 21 -8 -20 -20 -20 -20 -20 -20 -20 -20 -4 -13 -20 -7 -16 -16 -20 -20 -20 -20 -20 -20 -20 -20 -20 -20 -16 9 11 -20 -20 -20 -20 -20 -20 -20 -20 -20 -20 -20 -20
-2 9 -6 -7 8 13 1 19 16 24 31 21 22 -13 -20 -20 -20 -20 -20 -20 -20 -20 -8 -20 -18 1 1 -13 8 -15 -20 -20 -20 -20 -20 -20 -20 -20 -20 -20 -6 -20 -20 -16 -20 -20 -20 -20 -20 -20 -20 -20 -20 -20
-3 16 29 30 26 23 17 33 36 29 24 2 -4 3 -20 -14 -19 -20 -20 -20 -20 -20 -20 -20 -19 -20 -20 -16 -19 -20 -20 -20 -20 -18 -20 -20 -20 -20 -13 7 -2 -20 -20 -20 -20 -20 -20 -20 -20 -20 -20 -20 -20 -20
12 26 31 22 24 32 35 32 32 13 -20 -20 -20 -20 -20 -20 -20 -20 -20 -20 -19 -7 2 5 -16 -8 2 -18 -20 -20 -20 -20 -13 -20 -20 -20 -20 -15 -2 -20 -18 -18 -20 -20 -20 -20 -20 -20 -20 -20 -20 -20 -20 -20
-20 -20 -20 -8 -1 3 2 11 12 7 -2 -3 -17 -20 -17 -20 -3 -19 -14 -7 11 19 21 17 -4 -6 -20 -20 -20 -20 -20 -20 -17 5 -7 -1 -2 0 -20 -20 -19 -20 -20 -19 -19 -20 -20 -20 -20 -20 -20 -20 -20 -20
-20 -20 -20 -20 -20 -20 -20 -20 -20 -20 -20 -20 -20 -20 -20 -20 -20 -3 -6 -4 1 -14 9 12 -17 -20 -19 -20 -20 -18 -16 -11 -0 -7 -16 5 9 -17 -20 -20 -19 -19 -20 -20 -20 -20 -20 -20 -20 -20 -20 -20 -20 -20
-20 -20 -20 -20 -20 -20 -20 -20 -20 -20 -20 -20 -20 -20 -20 -20 -20 -20 -20 -11 8 12 4 -1 5 8 14 14 15 22 22 14 3 -17 -20 -12 3 -20 -20 -20 -20 -20 -20 -20 -20 -19 -20 -20 -20 -20 -20 -20 -20 -20
-20 -20 -20 -20 -20 -20 -20 -20 -20 -20 -20 -20 -20 -20 -20 -20 -20 -20 -20 -20 -20 -8 5 9 10 15 17 14 17 20 17 11 -2 -20 -10 -13 -20 -20 -20 -20 -20 -20 -20 -20 -20 -20 -20 -20 -20 -20 -20 -20 -20 -20
-20 -20 -20 -20 -20 -20 -20 -20 -20 -20 -20 -20 -20 -20 -19 12 16 -6 -15 -20 -7 -4 -10 5 4 4 10 13 16 15 13 7 7 10 8 -1 -11 -14 -20 -20 -20 -20 -20 -20 -20 -20 -20 -20 -20 -20 -20 -20 -20 -20
-20 -20 -20 -20 -20 -20 -20 -20 -20 -20 -20 -20 -20 -20 -20 -20 -20 -6 -20 -20 -18 -9 -5 1 -2 -8 3 9 7 4 4 7 6 6 9 3 -12 -19 -20 -20 -20 -20 -20 -20 -20 -20 -20 -20 -20 -20 -20 -20 -20 -20
-20 -20 -20 -20 -20 -20 -20 -20 -20 -20 -20 -20 -20 -20 -20 -20 -20 -20 -20 -20 -20 -20 -20 -20 -3 -6 -20 -15 2 5 5 4 4 4 6 2 -19 -20 -20 -20 -20 -20 -20 -20 -20 -20 -20 -20 -20 -20 -20 -20 -20 -20
-20 -20 -20 -20 -20 -20 -20 -20 -20 -20 -20 -20 -20 -20 -20 -20 -20 -20 -20 -20 -20 -20 -20 -20 -20 -20 -20 -19 -6 1 1 4 6 8 8 -16 -20 -20 -20 -20 -20 -20 -20 -20 -20 -20 -20 -20 -20 -20 -20 -20 -20 -20
-20 -20 -20 -20 -20 -20 -20 -20 -20 -20 -20 -20 -20 -20 -20 -0 -20 -20 -20 -20 -20 -20 -20 -20 -20 -20 -20 -17 -16 -16 -11 -0 4 6 7 -6 -20 -20 -20 -20 -20 -20 -20 -20 -20 -20 -20 -20 -20 -20 -20 -20 -20 -20
-20 -20 -20 -20 -20 -20 -20 -20 -20 -20 -20 -20 -20 -20 -20 -20 -20 -20 -20 -20 -20 -19 -20 -20 -20 -20 -20 -18 1 -1 -16 -20 -20 -19 -19 -20 -20 -20 -20 -20 -20 -20 -20 -20 -20 -20 -20 -20 -20 -20 -20 -20 -20 -20
-20 -20 -20 -20 -20 -20 -20 -20 -20 -20 -20 -20 -20 -20 -20 -20 -20 -20 -20 -20 -20 -20 -20 -20 -20 -20 -20 -20 -20 -20 -20 -20 -20 -20 -20 -20 -20 -20 -20 -20 -20 -20 -20 -20 -20 -20 -20 -20 -20 -20 -20 -20 -20 -20
-20 -20 -20 -20 -20 -20 -20 -20 -20 -20 -20 -20 -20 -20 -20 -20 -20 -20 -20 -20 -20 -20 -20 -20 -20 -20 -20 -20 -20 -20 -20 -20 -20 -20 -20 -20 -20 -20 -20 -20 -20 -20 -20 -20 -20 -20 -20 -20 -20 -20 -20 -20 -20 -20
-20 -20 -20 -20 -20 -20 -20 -20 -20 -20 -20 -20 -20 -20 -20 -20 -20 -20 -20 -20 -20 -20 -20 -20 -20 -20 -20 -20 -20 -20 -20 -20 -20 -20 -16 -20 -20 -20 -20 -20 -20 -20 -20 -20 -20 -20 -20 -20 -20 -20 -20 -20 -20 -20
-20 -20 -20 -20 -20 -20 -20 -20 -20 -20 -20 -20 -20 -20 -20 -20 -20 -20 -20 -20 -20 -20 -20 -20 -20 -20 -20 -20 -20 -20 -20 -20 -20 -20 -20 -20 -20 -20 -20 -20 -20 -20 -20 -20 -20 -20 -20 -20 -20 -20 -20 -20 -20 -20
-20 -20 -20 -20 -20 -20 -20 -20 -20 -20 -20 -20 -20 -20 -20 -20 -20 -20 -20 -20 -20 -20 -20 -20 -20 -20 -20 -20 -20 -20 -20 -20 -20 -20 -20 -20 -20 -20 -20 -20 -20 -20 -20 -20 -20 -20 -20 -20 -20 -20 -20 -20 -20 -20
Wind_Speed
19 20 19 16 14 15 16 15 14 11 9 8 7 5 5 7 8 4 1 4 4 3 5 5 3 5 8 2 4 1 4 2 2 5 5 4 3 4 3 7 6 8 6 5 4 5 8 7 5 6 5 8 9 10
18 18 19 18 17 15 15 15 13 11 10 8 7 6 5 7 10 7 2 2 2 4 4 2 7 7 8 8 5 3 4 4 3 3 3 2 3 3 6 4 5 7 8 3 6 3 3 5 7 13 9 11 11 11
17 19 19 16 19 18 15 15 15 13 10 8 8 8 7 8 10 8 3 3 2 4 5 5 11 16 15 15 12 8 3 4 3 3 2 2 6 4 4 6 5 4 2 5 2 7 11 11 12 12 6 9 10 15
18 21 20 20 20 20 20 16 15 13 10 10 10 9 9 9 11 8 3 3 2 1 4 5 2 6 7 13 17 17 16 5 3 3 5 4 3 4 4 5 5 4 5 4 6 9 11 14 10 13 12 10 12 16
13 13 16 19 20 21 21 20 16 13 12 11 11 11 10 11 11 4 1 3 3 3 3 6 13 20 18 15 17 15 14 13 2 3 3 5 3 3 3 2 6 6 6 5 7 8 9 9 7 3 6 14 12 9
15 14 12 12 12 10 9 18 16 13 11 12 12 12 11 11 9 3 1 3 5 4 3 4 4 7 4 8 11 12 11 5 3 3 4 2 4 4 5 5 4 8 10 13 12 8 11 9 8 9 8 8 7 7
14 14 14 16 17 17 15 14 14 12 13 12 12 11 11 11 5 4 5 2 9 4 2 5 5 4 2 2 3 3 2 2 3 3 3 3 3 5 4 12 10 8 10 10 10 4 11 8 7 7 6 9 8 6
12 11 11 11 13 15 16 15 12 12 11 11 11 10 9 13 7 6 4 3 7 2 3 4 5 3 4 2 2 3 3 3 4 1 2 4 1 3 7 6 6 10 13 13 16 12 15 12 10 10 6 4 7 5
12 11 10 11 14 14 12 12 12 12 12 11 9 6 2 2 5 3 9 8 3 2 3 5 4 4 2 2 2 3 3 3 2 4 4 4 4 8 11 8 9 9 7 8 4 4 6 6 4 2 3 4 5 5
13 13 12 12 12 13 12 13 12 11 10 15 4 2 3 5 8 5 4 4 5 5 4 5 3 3 1 2 2 1 0 3 3 5 3 5 8 16 10 11 12 9 9 9 6 6 3 1 3 3 4 5 6 5
15 14 14 14 14 13 13 12 11 11 14 2 3 5 3 9 3 4 5 6 6 6 6 5 9 4 3 2 2 2 1 2 4 4 5 3 5 4 2 4 6 3 2 4 4 6 4 3 3 5 7 6 7 5
18 16 16 15 14 14 14 13 13 5 3 5 3 1 2 3 3 6 5 4 6 6 6 5 5 3 3 3 1 2 2 2 6 2 4 4 4 4 5 3 5 6 7 8 7 6 5 5 5 5 5 6 6 6
18 17 17 16 15 14 14 14 15 11 7 1 1 3 3 4 6 7 7 4 4 4 5 4 3 3 2 2 2 3 4 6 2 4 5 5 3 4 4 4 6 5 6 6 7 6 6 5 5 6 6 5 5 2
21 18 17 15 13 15 16 15 18 11 3 3 4 6 4 5 6 6 3 2 1 3 6 3 3 2 2 3 2 4 4 3 5 4 6 1 5 5 5 3 4 5 6 7 5 5 5 5 6 5 5 4 4 6
18 16 14 15 15 15 13 17 19 3 2 4 4 5 6 2 0 1 2 1 1 4 5 2 2 3 3 3 4 5 4 6 7 5 2 2 6 6 5 4 5 6 6 5 5 6 6 5 6 6 7 6 6 6
22 19 13 17 16 19 16 16 6 2 2 4 3 1 1 1 1 2 2 2 1 2 2 1 2 2 5 5 8 7 5 7 4 1 2 5 5 4 5 6 5 6 6 6 5 6 7 6 6 6 6 8 8 8
10 3 8 11 17 23 23 6 4 7 5 4 3 2 1 1 2 2 2 3 3 2 2 2 4 8 1 4 5 5 5 2 2 2 3 4 5 5 5 5 5 6 5 5 6 7 7 6 7 8 11 8 8 8
4 1 3 8 9 5 2 3 4 3 4 3 3 3 2 3 2 1 2 2 3 3 3 3 2 5 5 4 4 3 2 2 4 4 3 4 4 5 4 6 6 6 6 7 7 7 7 7 9 6 7 6 7 7
3 3 4 7 6 4 4 3 2 3 4 2 2 2 1 1 3 3 1 1 2 1 2 3 5 4 4 1 2 2 5 4 5 3 3 4 5 5 6 6 6 7 7 8 8 7 7 7 6 6 5 6 7 6
8 8 5 4 5 2 2 1 1 2 2 3 2 3 2 2 1 1 3 3 3 2 4 4 2 2 3 2 2 2 2 5 7 6 4 4 4 7 7 7 7 8 8 8 7 6 6 6 6 5 6 6 6 6
6 5 6 4 3 3 2 1 0 0 0 1 1 2 1 1 2 2 2 1 1 1 1 2 2 4 4 4 2 3 3 4 3 2 5 5 4 6 6 6 6 5 6 5 6 6 7 6 5 5 5 5 5 5
1 4 2 4 3 3 3 2 1 2 1 1 1 0 1 1 2 1 2 2 2 2 2 2 3 3 4 4 3 3 4 5 7 6 8 6 5 5 5 4 6 6 6 5 6 6 6 5 4 4 4 4 4 6
3 3 4 5 4 5 3 2 1 1 1 2 1 1 2 1 1 1 3 2 1 2 2 2 2 3 4 4 5 7 6 6 5 5 6 6 6 6 6 6 5 6 7 5 5 5 4 3 4 4 4 5 4 4
5 5 5 3 3 2 4 4 2 2 3 1 1 3 2 2 1 2 3 2 4 6 5 4 3 2 3 6 5 5 5 5 6 6 5 6 6 6 6 6 6 5 5 5 4 4 4 4 4 4 4 5 5 5
8 7 6 7 4 6 5 6 5 4 2 1 2 3 2 2 1 2 2 3 4 6 7 7 5 3 2 2 3 4 6 3 4 5 4 4 7 6 6 6 6 5 2 4 3 4 3 3 4 5 6 5 6 6
6 4 4 1 4 3 3 3 4 4 3 4 2 3 3 1 2 2 2 3 3 4 5 6 6 4 3 4 2 3 3 3 3 3 3 1 3 5 6 6 4 3 3 2 3 3 4 3 5 6 6 7 6 5
5 4 2 3 2 2 3 3 3 1 4 4 4 5 4 2 2 0 1 3 3 3 5 5 5 4 3 3 3 4 4 5 6 5 5 6 6 5 4 4 5 3 2 2 2 2 3 4 5 5 6 5 6 5
2 2 1 5 2 1 2 1 1 3 2 4 4 3 0 1 0 2 2 3 5 6 3 4 5 5 4 4 4 3 5 5 7 7 7 8 7 6 7 5 4 5 4 4 3 3 5 6 7 6 7 7 5 4
2 3 2 4 4 2 0 1 0 1 1 1 1 3 1 1 1 2 2 5 6 4 2 1 2 3 4 5 5 5 5 3 1 2 3 3 2 3 3 4 4 3 4 7 10 8 9 8 8 8 8 7 6 6
3 3 3 2 2 2 3 1 2 3 2 1 2 2 1 1 0 1 3 3 4 3 3 2 1 1 1 2 3 5 5 4 3 1 2 3 3 4 3 3 4 3 3 6 8 9 10 9 8 5 7 6 6 6
3 3 2 0 3 3 2 3 3 3 1 2 3 2 1 1 1 1 4 4 3 2 2 3 4 4 3 3 2 2 3 5 6 7 6 6 5 5 4 4 3 3 4 5 6 6 7 7 7 8 9 9 7 7
4 3 2 2 4 3 4 4 2 2 3 2 3 2 1 2 1 2 4 3 3 4 4 3 3 3 3 3 4 4 6 3 3 4 5 4 5 5 4 4 4 5 6 7 7 7 9 9 7 7 8 8 7 7
2 1 1 2 5 6 4 4 5 4 3 2 2 1 1 2 3 3 2 2 1 1 2 2 3 4 5 5 5 4 5 4 6 7 7 8 7 6 4 4 5 6 8 7 7 8 9 11 9 8 8 8 7 6
Wind_Direction
189 188 201 207 194 194 188 188 190 191 200 206 213 227 244 220 205 141 151 175 148 229 262 255 264 277 290 292 278 287 305 204 156 198 219 204 231 204 250 233 253 227 232 212 211 251 261 20 331 237 339 312 317 320
192 194 194 202 208 215 200 194 193 195 204 208 213 232 243 228 206 160 180 169 149 228 260 310 261 247 240 273 284 203 249 292 184 218 233 270 220 220 217 254 232 249 228 241 219 242 242 251 247 280 280 300 305 309
207 198 189 195 200 203 216 205 194 195 198 208 226 238 239 231 214 172 149 146 100 271 281 248 251 247 237 227 223 258 207 216 227 323 199 204 240 160 206 223 227 240 203 243 342 225 244 268 276 273 302 279 297 299
199 204 201 197 202 209 208 219 194 194 199 214 228 236 241 233 219 169 168 171 119 283 269 276 291 247 250 232 228 216 239 218 239 194 224 213 235 223 226 257 216 209 165 186 245 268 265 276 264 257 246 235 282 273
186 191 196 203 205 202 207 210 209 192 204 218 228 236 238 229 221 153 157 190 170 185 280 296 306 284 254 226 222 219 220 226 154 246 244 197 200 198 208 215 237 187 210 212 249 245 248 274 282 261 271 288 296 294
166 167 168 177 182 180 186 201 197 194 208 220 228 232 230 220 166 105 312 229 184 148 288 294 291 275 276 213 211 204 208 203 155 210 233 236 263 215 223 229 244 205 222 232 253 271 250 264 277 282 297 307 303 289
173 176 178 177 173 168 168 197 216 205 216 220 225 227 221 198 143 158 189 221 165 120 185 281 268 267 262 145 166 163 165 187 184 223 220 233 243 211 248 253 252 222 247 249 247 254 264 229 249 278 262 291 294 284
172 181 184 186 185 187 188 194 201 209 213 213 215 214 208 190 176 239 242 173 155 174 182 243 258 304 184 179 193 176 181 180 197 240 198 219 230 227 257 242 229 244 257 265 258 239 257 272 269 274 281 285 287 309
179 180 181 187 190 191 190 196 202 205 205 202 202 176 100 169 208 218 219 195 147 195 220 220 220 257 162 163 181 181 187 194 155 221 232 178 208 223 234 243 225 226 214 243 240 256 270 259 269 316 323 298 299 326
184 182 189 194 193 191 195 197 198 195 179 124 83 148 203 206 184 176 137 193 203 191 223 259 290 247 233 167 113 123 151 218 238 229 159 230 248 251 256 248 250 234 231 246 248 262 221 217 5 337 329 327 305 301
192 190 190 196 198 192 188 186 184 167 137 140 173 211 220 161 103 184 207 196 188 205 198 223 192 220 177 153 155 206 180 233 243 228 208 244 258 234 37 20 16 344 208 87 82 72 54 43 340 329 331 328 330 321
195 194 197 201 202 200 195 189 181 140 172 188 195 97 103 191 183 199 205 220 216 211 179 186 192 178 169 117 125 168 237 244 254 146 228 239 239 207 148 119 66 47 57 65 55 57 35 33 6 330 316 330 332 324
191 192 190 192 197 196 191 187 171 138 134 162 228 255 203 164 197 199 208 198 217 176 171 166 146 153 135 131 173 182 224 238 299 227 238 230 168 131 125 126 93 73 68 64 55 45 38 37 24 9 346 331 311 59
189 191 192 178 187 190 192 181 164 144 100 218 211 242 214 188 215 199 205 184 219 149 144 145 112 112 135 166 173 214 223 247 252 237 237 245 153 124 104 98 108 80 70 74 64 59 55 50 36 4 2 349 42 59
180 171 192 194 189 181 176 171 162 108 163 250 208 225 211 248 10 107 132 206 76 139 139 125 129 181 155 212 202 222 216 239 228 235 252 131 126 128 123 110 110 103 93 81 69 67 63 60 53 39 14 19 49 58
184 196 215 214 206 193 184 171 157 110 218 248 224 272 149 139 203 153 162 182 195 129 114 106 164 218 214 205 189 202 223 231 245 197 128 133 123 119 124 114 103 99 93 90 83 77 72 68 60 54 34 37 43 53
110 73 106 132 174 204 201 176 167 188 233 189 221 194 254 324 176 190 185 203 138 124 183 171 209 218 218 226 212 196 216 216 194 149 134 130 140 140 124 121 117 105 109 102 92 80 82 78 76 67 58 37 50 56
85 214 151 143 140 118 108 189 203 192 238 187 197 205 211 210 143 166 208 141 154 191 198 233 299 223 221 223 224 216 179 150 125 138 118 116 119 118 124 121 115 116 93 85 80 75 70 68 67 59 57 44 57 51
161 168 160 144 171 143 161 192 178 213 216 166 188 202 214 228 216 218 181 196 213 238 263 227 230 231 235 284 285 244 175 168 138 123 112 108 111 113 107 102 100 102 97 93 91 84 79 72 77 73 65 60 61 44
108 59 68 52 147 118 138 281 162 178 200 207 172 197 220 201 132 188 202 197 189 201 214 231 273 334 298 287 280 269 165 138 126 134 122 112 115 111 108 110 107 112 105 103 97 96 84 72 61 58 54 51 56 50
36 345 7 41 57 66 98 14 352 106 174 213 172 187 220 199 217 210 198 167 190 8 312 355 306 304 299 291 275 115 122 145 142 139 140 130 110 114 108 106 110 109 107 103 98 84 76 62 47 49 56 54 56 62
295 354 56 15 67 21 70 6 329 328 349 316 330 280 269 246 229 169 115 74 41 3 343 320 332 333 350 7 9 56 101 100 93 90 91 110 118 109 96 95 105 95 86 82 90 84 71 50 30 42 51 55 59 53
14 39 45 19 62 43 254 337 57 65 54 293 311 278 278 283 66 101 77 63 47 326 309 332 341 349 21 19 46 46 49 91 90 90 90 89 87 88 92 82 90 106 104 86 85 83 74 18 40 43 48 58 64 57
29 50 45 50 44 307 342 3 331 357 6 356 315 302 351 12 21 56 84 56 1 356 5 360 352 358 27 35 39 33 31 72 85 79 87 106 99 82 83 86 79 74 82 98 86 81 62 46 30 56 56 70 57 55
67 340 66 348 340 24 20 352 346 22 331 306 351 318 322 344 73 59 76 23 354 3 355 351 359 20 66 59 43 41 25 53 94 96 53 106 117 112 98 87 76 62 70 103 90 82 73 65 67 68 62 59 67 56
74 314 64 298 308 45 326 344 347 343 339 332 326 316 343 36 67 57 46 339 330 346 350 349 336 345 41 25 56 39 20 19 71 87 45 64 137 141 138 134 124 85 36 77 114 105 93 86 78 75 65 55 47 61
61 315 345 20 330 327 356 347 344 7 11 5 344 338 345 355 74 87 20 21 340 340 338 347 349 10 51 54 43 32 33 43 68 81 67 54 53 61 102 117 114 96 74 68 76 92 112 111 110 101 97 75 53 48
169 83 107 300 358 10 160 16 40 22 7 344 348 359 270 246 32 13 7 348 334 322 347 17 26 36 45 35 28 53 67 82 91 96 88 64 54 57 66 70 63 76 78 57 80 101 110 116 115 103 91 85 75 51
33 324 67 351 342 6 296 133 238 35 341 94 156 270 237 73 20 329 323 326 319 313 326 27 51 49 62 57 44 34 26 15 84 101 91 119 120 64 41 62 64 63 84 86 81 89 96 100 104 104 100 96 92 83
311 357 69 50 94 261 245 14 295 296 325 68 99 95 67 33 348 330 335 342 360 347 327 313 355 353 63 67 67 50 34 22 7 308 174 168 135 115 88 73 79 87 100 103 101 92 85 93 97 89 92 89 85 85
341 16 44 55 244 253 261 298 290 245 21 59 14 99 69 331 301 8 358 339 330 17 52 49 47 33 67 63 60 61 59 19 16 36 57 85 99 97 88 83 88 93 99 105 109 112 116 103 104 103 96 92 83 86
12 70 107 314 289 293 7 37 358 51 2 53 14 22 25 22 292 309 344 351 33 40 21 58 84 59 44 68 65 63 60 62 36 29 48 80 86 85 91 97 103 104 105 103 106 111 111 110 108 105 104 98 92 87
32 33 61 355 333 342 336 26 24 357 28 38 357 320 237 183 234 255 316 39 77 140 110 88 85 83 77 77 76 73 61 58 52 63 79 88 89 91 86 83 93 101 104 104 104 112 108 110 107 107 105 104 100 95